Weather in Szombathely

Hungary     47°13′42″N   16°37′12″E
temp.,
°C
wind,
m/s
gust,
m/s
humid.,
%
clouds,
%
prec.,
mm/h
press.,
hPa
HPBL,
m
28 february, sun
sun2801:00+3n412750 0.0 1038555
04:00+2n4117922 0.0 1037411
07:00+1nnw497911 0.0 1037288
10:00+5n34590 0.0 1036639
13:00+7nne345028 0.0 10351018
16:00+8nne2251100 0.0 1034819
19:00+4nne126750 0.0 103422
22:00+3nw22680 0.0 103422
1 march, mon
mon101:00+3nw23680 0.0 103435
04:00+2nnw22650 0.0 103324
07:00+2n410740 0.0 1035276
10:00+7nne58660 0.0 1035713
13:00+9ne45610 0.0 1035853
16:00+9ne33610 0.0 1034872
19:00+6ese01750 0.0 103622
22:00+4w12790 0.0 103622
2 march, tue
tue201:00+3sw23840 0.0 103727
04:00+2wsw34880 0.0 103670
07:00+2sw35890 0.0 103694
10:00+7sw47640 0.0 1036459
13:00+11sw57510 0.0 1034727
16:00+11ssw45500 0.0 1033683
19:00+7ssw33670 0.0 103444
22:00+5wsw23730 0.0 103433
3 march, wed
wed301:00+4wsw22750 0.0 103423
04:00+3wsw12780 0.0 103322
07:00+3w11780 0.0 103322
10:00+8se015911 0.0 1032281
13:00+11s114925 0.0 1030588
16:00+12s12468 0.0 1028654
19:00+8ssw22618 0.0 102822
22:00+7wsw236640 0.0 102726
4 march, thu
thu401:00+5wsw237133 0.0 102629
04:00+4wsw22740 0.0 102423
07:00+4wsw22768 0.0 102322
10:00+9sw235730 0.0 1020278
13:00+13ssw344621 0.0 1017644
16:00+13s344942 0.0 1015702
19:00+9sse116662 0.0 101422
22:00+8wnw117182 0.0 101422